User: anonymous   Login
Location: Unspecified
(0.0000°N, 0.0000°E)
Time: 12:09:00
(UTC+00:00)
Language:

KORONAS-FOTON - Orbit

View from above orbital plane
View from above orbital plane
View from above satellite
View from above satellite

Ground track
Ground track

The orbit data is extracted from the following two-line orbital elements,

1 33504U 09003A   16042.40604635  .00002116  00000-0  11435-3 0  9995
2 33504  82.4456   1.3998 0020302  13.2551 346.9209 15.14012398387049
Epoch (UTC): 11 February 2016 09:44:42
Eccentricity: 0.0020302
inclination: 82.4456°
perigee height: 510 km
apogee height: 538 km
right ascension of ascending node: 1.3998°
argument of perigee: 13.2551°
revolutions per day: 15.14012398
mean anomaly at epoch: 346.9209°
orbit number at epoch: 38704

The dashed part of the orbit path shows where the satellite is in the earth's shadow,  

DLR